| time (UTC) | temp F | wind direction | speed MPH | gust MPH | rain 1hr in | rain 24hr in | rain mn in | humidity % | barometer mb |
| 20260905224055 | 89 | 126 | 2.0 | 9.0 | 0.00 | 0.24 | 0.24 | 49 | 1014.6 |
| 20260905223558 | 89 | 169 | 2.0 | 9.0 | 0.00 | 0.24 | 0.24 | 49 | 1014.8 |
| 20260905223106 | 89 | 166 | 1.0 | 7.0 | 0.00 | 0.24 | 0.24 | 48 | 1014.9 |
| 20260905222558 | 89 | 138 | 2.0 | 9.0 | 0.00 | 0.24 | 0.24 | 49 | 1014.9 |
| 20260905222058 | 89 | 189 | 2.0 | 9.0 | 0.00 | 0.24 | 0.24 | 48 | 1014.9 |
| 20260905221603 | 89 | 115 | 3.0 | 10.0 | 0.00 | 0.24 | 0.24 | 47 | 1014.8 |
| 20260905221056 | 89 | 151 | 4.0 | 10.0 | 0.00 | 0.24 | 0.24 | 47 | 1014.7 |
| 20260905220558 | 89 | 155 | 3.0 | 9.0 | 0.00 | 0.24 | 0.24 | 48 | 1014.6 |
| 20260905220106 | 89 | 236 | 2.0 | 8.0 | 0.00 | 0.24 | 0.24 | 48 | 1014.6 |
| 20260905215600 | 89 | 150 | 2.0 | 9.0 | 0.00 | 0.24 | 0.24 | 48 | 1014.6 |
| 20260905215102 | 89 | 142 | 2.0 | 9.0 | 0.00 | 0.24 | 0.24 | 48 | 1014.5 |
| 20260905214604 | 89 | 119 | 3.0 | 9.0 | 0.00 | 0.24 | 0.24 | 48 | 1014.5 |
| 20260905214059 | 89 | 182 | 3.0 | 7.0 | 0.00 | 0.24 | 0.24 | 47 | 1014.5 |
| 20260905213601 | 89 | 167 | 3.0 | 7.0 | 0.00 | 0.24 | 0.24 | 48 | 1014.3 |
| 20260905213111 | 89 | 143 | 2.0 | 7.0 | 0.00 | 0.24 | 0.24 | 47 | 1014.3 |
| 20260905212556 | 89 | 195 | 3.0 | 9.0 | 0.00 | 0.24 | 0.24 | 48 | 1014.3 |
| 20260905212055 | 89 | 129 | 3.0 | 9.0 | 0.00 | 0.24 | 0.24 | 48 | 1014.5 |
| 20260905211601 | 90 | 128 | 4.0 | 10.0 | 0.00 | 0.24 | 0.24 | 47 | 1014.5 |
| 20260905211056 | 90 | 171 | 3.0 | 10.0 | 0.00 | 0.24 | 0.24 | 48 | 1014.5 |
| 20260905210557 | 90 | 100 | 5.0 | 12.0 | 0.00 | 0.24 | 0.24 | 47 | 1014.4 |
| 20260905210123 | 90 | 138 | 4.0 | 12.0 | 0.00 | 0.24 | 0.24 | 47 | 1014.4 |
| 20260905205555 | 90 | 124 | 4.0 | 9.0 | 0.00 | 0.24 | 0.24 | 47 | 1014.4 |
| 20260905205101 | 90 | 90 | 3.0 | 11.0 | 0.00 | 0.24 | 0.24 | 48 | 1014.4 |
| 20260905204606 | 90 | 108 | 4.0 | 11.0 | 0.00 | 0.24 | 0.24 | 48 | 1014.4 |
| 20260905204059 | 90 | 132 | 4.0 | 11.0 | 0.00 | 0.24 | 0.24 | 47 | 1014.3 |
| 20260905203559 | 90 | 94 | 3.0 | 10.0 | 0.00 | 0.24 | 0.24 | 47 | 1014.3 |
| 20260905203108 | 90 | 128 | 4.0 | 10.0 | 0.00 | 0.24 | 0.24 | 48 | 1014.3 |
| 20260905202558 | 90 | 92 | 4.0 | 11.0 | 0.00 | 0.24 | 0.24 | 49 | 1014.4 |
| 20260905202059 | 90 | 67 | 5.0 | 11.0 | 0.00 | 0.24 | 0.24 | 48 | 1014.5 |
| 20260905201603 | 90 | 119 | 4.0 | 8.0 | 0.00 | 0.24 | 0.24 | 50 | 1014.5 |
| 20260905201059 | 89 | 108 | 3.0 | 10.0 | 0.00 | 0.24 | 0.24 | 49 | 1014.5 |
| 20260905200555 | 89 | 132 | 3.0 | 10.0 | 0.00 | 0.24 | 0.24 | 51 | 1014.5 |
| 20260905200112 | 89 | 118 | 4.0 | 10.0 | 0.00 | 0.24 | 0.24 | 48 | 1014.6 |
| 20260905195556 | 89 | 118 | 3.0 | 9.0 | 0.00 | 0.24 | 0.24 | 49 | 1014.5 |
| 20260905195058 | 89 | 88 | 4.0 | 9.0 | 0.00 | 0.24 | 0.24 | 49 | 1014.5 |
| 20260905194616 | 89 | 158 | 3.0 | 9.0 | 0.00 | 0.24 | 0.24 | 52 | 1014.5 |
| 20260905194056 | 88 | 133 | 4.0 | 9.0 | 0.00 | 0.24 | 0.24 | 55 | 1014.5 |
| 20260905193556 | 88 | 92 | 3.0 | 7.0 | 0.00 | 0.24 | 0.24 | 54 | 1014.5 |
| 20260905193101 | 87 | 113 | 3.0 | 9.0 | 0.00 | 0.24 | 0.24 | 52 | 1014.5 |
| 20260905192557 | 87 | 105 | 2.0 | 9.0 | 0.00 | 0.24 | 0.24 | 53 | 1014.4 |
| 20260905192058 | 87 | 101 | 3.0 | 10.0 | 0.00 | 0.24 | 0.24 | 52 | 1014.4 |
| 20260905191609 | 88 | 105 | 3.0 | 10.0 | 0.00 | 0.24 | 0.24 | 52 | 1014.5 |
| 20260905191059 | 88 | 73 | 3.0 | 9.0 | 0.00 | 0.24 | 0.24 | 51 | 1014.5 |
| 20260905190559 | 88 | 90 | 4.0 | 9.0 | 0.00 | 0.24 | 0.24 | 51 | 1014.5 |
| 20260905190114 | 88 | 91 | 3.0 | 9.0 | 0.00 | 0.24 | 0.24 | 51 | 1014.4 |
| 20260905185556 | 88 | 100 | 3.0 | 8.0 | 0.00 | 0.24 | 0.24 | 54 | 1014.4 |
| 20260905185058 | 88 | 111 | 3.0 | 10.0 | 0.00 | 0.24 | 0.24 | 55 | 1014.5 |
| 20260905184623 | 88 | 103 | 3.0 | 10.0 | 0.00 | 0.24 | 0.24 | 53 | 1014.4 |
| 20260905184058 | 87 | 93 | 3.0 | 10.0 | 0.00 | 0.24 | 0.24 | 53 | 1014.6 |
| 20260905183555 | 87 | 51 | 4.0 | 11.0 | 0.00 | 0.24 | 0.24 | 53 | 1014.7 |
| 20260905183105 | 87 | 113 | 3.0 | 11.0 | 0.00 | 0.24 | 0.24 | 54 | 1014.6 |
| 20260905182556 | 86 | 148 | 4.0 | 11.0 | 0.00 | 0.24 | 0.24 | 55 | 1014.8 |
| 20260905182059 | 86 | 99 | 3.0 | 10.0 | 0.00 | 0.24 | 0.24 | 53 | 1014.7 |
| 20260905181602 | 86 | 70 | 3.0 | 9.0 | 0.00 | 0.24 | 0.24 | 54 | 1014.7 |
| 20260905181058 | 86 | 110 | 3.0 | 8.0 | 0.00 | 0.24 | 0.24 | 52 | 1014.8 |
| 20260905180559 | 86 | 97 | 4.0 | 8.0 | 0.00 | 0.24 | 0.24 | 51 | 1014.8 |
| 20260905180103 | 85 | 98 | 4.0 | 10.0 | 0.00 | 0.24 | 0.24 | 51 | 1014.9 |
| 20260905175555 | 86 | 111 | 4.0 | 10.0 | 0.00 | 0.24 | 0.24 | 50 | 1014.8 |
| 20260905175058 | 86 | 92 | 5.0 | 14.0 | 0.00 | 0.24 | 0.24 | 52 | 1014.8 |
| 20260905174608 | 86 | 122 | 6.0 | 15.0 | 0.00 | 0.24 | 0.24 | 50 | 1014.9 |
| 20260905174058 | 85 | 106 | 7.0 | 15.0 | 0.00 | 0.24 | 0.24 | 51 | 1014.9 |
| 20260905173559 | 85 | 123 | 5.0 | 11.0 | 0.00 | 0.24 | 0.24 | 53 | 1014.9 |
| 20260905173110 | 84 | 107 | 4.0 | 12.0 | 0.00 | 0.24 | 0.24 | 57 | 1014.9 |
| 20260905172556 | 83 | 98 | 5.0 | 12.0 | 0.00 | 0.24 | 0.24 | 58 | 1014.9 |
| 20260905172103 | 82 | 127 | 4.0 | 10.0 | 0.00 | 0.24 | 0.24 | 59 | 1015.0 |
| 20260905171621 | 80 | 120 | 4.0 | 14.0 | 0.00 | 0.24 | 0.24 | 63 | 1015.1 |
| 20260905171058 | 80 | 198 | 6.0 | 14.0 | 0.00 | 0.24 | 0.24 | 61 | 1015.1 |
| 20260905170558 | 80 | 116 | 5.0 | 9.0 | 0.00 | 0.24 | 0.24 | 63 | 1015.0 |
| 20260905170106 | 79 | 118 | 5.0 | 9.0 | 0.00 | 0.24 | 0.24 | 63 | 1015.1 |
| 20260905165559 | 79 | 120 | 4.0 | 9.0 | 0.00 | 0.24 | 0.24 | 65 | 1015.0 |
| 20260905165059 | 78 | 101 | 4.0 | 9.0 | 0.00 | 0.24 | 0.24 | 66 | 1015.1 |
| 20260905164604 | 78 | 117 | 3.0 | 8.0 | 0.00 | 0.24 | 0.24 | 69 | 1015.1 |
| 20260905164056 | 77 | 96 | 4.0 | 7.0 | 0.00 | 0.24 | 0.24 | 70 | 1015.1 |
| 20260905163559 | 76 | 206 | 3.0 | 7.0 | 0.00 | 0.24 | 0.24 | 71 | 1015.2 |
| 20260905163113 | 76 | 134 | 2.0 | 7.0 | 0.00 | 0.24 | 0.24 | 73 | 1015.4 |
| 20260905162602 | 75 | 96 | 1.0 | 6.0 | 0.00 | 0.24 | 0.24 | 73 | 1015.5 |
| 20260905162058 | 74 | 69 | 0.0 | 3.0 | 0.00 | 0.24 | 0.24 | 73 | 1015.5 |
| 20260905161602 | 74 | 0 | 1.0 | 6.0 | 0.00 | 0.24 | 0.24 | 74 | 1015.3 |
| 20260905161057 | 74 | 71 | 2.0 | 6.0 | 0.00 | 0.24 | 0.24 | 74 | 1015.2 |
| 20260905160556 | 73 | 101 | 2.0 | 5.0 | 0.00 | 0.24 | 0.24 | 75 | 1015.2 |
| 20260905160105 | 73 | 119 | 2.0 | 4.0 | 0.00 | 0.24 | 0.24 | 76 | 1015.1 |
| 20260905155557 | 72 | 107 | 1.0 | 4.0 | 0.00 | 0.24 | 0.24 | 77 | 1015.2 |
| 20260905155056 | 72 | 105 | 1.0 | 4.0 | 0.00 | 0.24 | 0.24 | 78 | 1015.3 |
| 20260905154617 | 72 | 103 | 0.0 | 4.0 | 0.00 | 0.24 | 0.24 | 79 | 1015.5 |
| 20260905154056 | 71 | 0 | 0.0 | 6.0 | 0.00 | 0.24 | 0.24 | 79 | 1015.3 |
| 20260905153558 | 71 | 0 | 1.0 | 6.0 | 0.00 | 0.24 | 0.24 | 80 | 1015.5 |
| 20260905153113 | 70 | 96 | 0.0 | 3.0 | 0.00 | 0.24 | 0.24 | 80 | 1015.4 |
| 20260905152559 | 70 | 0 | 0.0 | 4.0 | 0.00 | 0.24 | 0.24 | 81 | 1015.3 |
| 20260905152059 | 70 | 102 | 1.0 | 4.0 | 0.00 | 0.24 | 0.24 | 80 | 1015.3 |
| 20260905151613 | 70 | 96 | 1.0 | 4.0 | 0.00 | 0.24 | 0.24 | 80 | 1015.4 |
| 20260905151059 | 69 | 120 | 1.0 | 4.0 | 0.00 | 0.24 | 0.24 | 80 | 1015.5 |
| 20260905150556 | 69 | 101 | 2.0 | 4.0 | 0.00 | 0.24 | 0.24 | 80 | 1015.6 |
| 20260905150100 | 69 | 83 | 1.0 | 3.0 | 0.00 | 0.24 | 0.24 | 80 | 1015.6 |
| 20260905145556 | 69 | 0 | 0.0 | 2.0 | 0.00 | 0.24 | 0.24 | 80 | 1015.6 |
| 20260905145056 | 69 | 88 | 0.0 | 4.0 | 0.00 | 0.24 | 0.24 | 80 | 1015.7 |
| 20260905144603 | 69 | 0 | 1.0 | 4.0 | 0.00 | 0.24 | 0.24 | 78 | 1015.7 |
| 20260905144057 | 68 | 0 | 0.0 | 4.0 | 0.00 | 0.24 | 0.24 | 79 | 1015.6 |
| 20260905143559 | 68 | 0 | 0.0 | 4.0 | 0.00 | 0.24 | 0.24 | 80 | 1015.4 |
| 20260905143101 | 68 | 112 | 0.0 | 6.0 | 0.00 | 0.24 | 0.24 | 79 | 1015.2 |
| 20260905142557 | 68 | 116 | 0.0 | 7.0 | 0.00 | 0.24 | 0.24 | 79 | 1014.9 |
| 20260905142058 | 68 | 119 | 2.0 | 8.0 | 0.00 | 0.24 | 0.24 | 80 | 1014.9 |
| 20260905141601 | 68 | 134 | 3.0 | 8.0 | 0.00 | 0.24 | 0.24 | 80 | 1014.7 |
| 20260905141056 | 68 | 213 | 3.0 | 8.0 | 0.00 | 0.24 | 0.24 | 80 | 1014.9 |
| 20260905140559 | 68 | 115 | 2.0 | 12.0 | 0.00 | 0.24 | 0.24 | 81 | 1015.3 |
| 20260905135558 | 67 | 185 | 4.0 | 8.0 | 0.00 | 0.24 | 0.24 | 81 | 1016.1 |
| 20260905135058 | 67 | 207 | 2.0 | 7.0 | 0.00 | 0.24 | 0.24 | 82 | 1016.1 |
| 20260905134601 | 67 | 0 | 1.0 | 7.0 | 0.00 | 0.24 | 0.24 | 82 | 1016.0 |
| 20260905134103 | 67 | 203 | 3.0 | 7.0 | 0.00 | 0.24 | 0.24 | 82 | 1016.4 |
| 20260905133555 | 67 | 195 | 3.0 | 8.0 | 0.00 | 0.24 | 0.24 | 83 | 1016.4 |
| 20260905133111 | 67 | 202 | 2.0 | 9.0 | 0.01 | 0.24 | 0.24 | 83 | 1016.3 |
| 20260905132558 | 67 | 232 | 2.0 | 9.0 | 0.03 | 0.24 | 0.24 | 83 | 1016.6 |
| 20260905132059 | 67 | 301 | 2.0 | 10.0 | 0.04 | 0.24 | 0.24 | 83 | 1016.4 |
| 20260905131607 | 67 | 200 | 2.0 | 10.0 | 0.06 | 0.24 | 0.24 | 83 | 1016.5 |
| 20260905131102 | 67 | 126 | 3.0 | 9.0 | 0.08 | 0.24 | 0.24 | 83 | 1015.9 |
| 20260905130555 | 67 | 128 | 3.0 | 10.0 | 0.09 | 0.24 | 0.24 | 83 | 1016.0 |
| 20260905130059 | 68 | 124 | 3.0 | 11.0 | 0.11 | 0.24 | 0.24 | 83 | 1015.8 |
| 20260905125558 | 68 | 136 | 3.0 | 11.0 | 0.12 | 0.24 | 0.24 | 83 | 1016.1 |
| 20260905125058 | 68 | 147 | 3.0 | 14.0 | 0.14 | 0.24 | 0.24 | 83 | 1016.7 |
| 20260905124602 | 68 | 142 | 2.0 | 14.0 | 0.15 | 0.24 | 0.24 | 83 | 1017.0 |
| 20260905124058 | 68 | 167 | 5.0 | 11.0 | 0.17 | 0.24 | 0.24 | 83 | 1016.8 |
| 20260905123555 | 69 | 132 | 5.0 | 11.0 | 0.18 | 0.24 | 0.24 | 83 | 1016.7 |
| 20260905123103 | 69 | 170 | 4.0 | 11.0 | 0.17 | 0.23 | 0.23 | 83 | 1017.2 |
| 20260905122555 | 69 | 120 | 3.0 | 15.0 | 0.16 | 0.21 | 0.21 | 83 | 1018.0 |
| 20260905122102 | 70 | 161 | 5.0 | 15.0 | 0.16 | 0.20 | 0.20 | 83 | 1018.7 |
| 20260905121605 | 70 | 167 | 3.0 | 8.0 | 0.14 | 0.18 | 0.18 | 83 | 1018.9 |
| 20260905121058 | 70 | 239 | 2.0 | 12.0 | 0.13 | 0.16 | 0.16 | 84 | 1019.0 |
| 20260905120602 | 70 | 232 | 3.0 | 14.0 | 0.11 | 0.14 | 0.14 | 84 | 1019.1 |
| 20260905120100 | 70 | 263 | 7.0 | 14.0 | 0.11 | 0.13 | 0.13 | 84 | 1018.9 |
| 20260905115558 | 71 | 257 | 5.0 | 12.0 | 0.10 | 0.12 | 0.12 | 86 | 1018.7 |
| 20260905115058 | 71 | 261 | 4.0 | 8.0 | 0.09 | 0.10 | 0.10 | 88 | 1018.7 |
| 20260905114601 | 72 | 209 | 3.0 | 8.0 | 0.08 | 0.09 | 0.09 | 89 | 1018.5 |
| 20260905114102 | 72 | 272 | 3.0 | 9.0 | 0.06 | 0.07 | 0.07 | 90 | 1018.2 |
| 20260905113556 | 72 | 255 | 4.0 | 9.0 | 0.06 | 0.06 | 0.06 | 90 | 1017.8 |
| 20260905113103 | 72 | 272 | 3.0 | 13.0 | 0.06 | 0.06 | 0.06 | 90 | 1017.6 |
| 20260905112556 | 72 | 340 | 4.0 | 13.0 | 0.05 | 0.05 | 0.05 | 90 | 1017.5 |
| 20260905112058 | 71 | 223 | 3.0 | 9.0 | 0.04 | 0.04 | 0.04 | 89 | 1017.1 |
| 20260905111646 | 71 | 261 | 1.0 | 4.0 | 0.04 | 0.04 | 0.04 | 89 | 1017.0 |
| 20260905111058 | 71 | 263 | 0.0 | 6.0 | 0.03 | 0.03 | 0.03 | 89 | 1016.9 |
| 20260905110558 | 71 | 265 | 1.0 | 6.0 | 0.03 | 0.03 | 0.03 | 89 | 1017.0 |
| 20260905110058 | 71 | 208 | 2.0 | 7.0 | 0.02 | 0.02 | 0.02 | 88 | 1017.1 |
| 20260905105559 | 71 | 133 | 2.0 | 7.0 | 0.02 | 0.02 | 0.02 | 88 | 1017.1 |
| 20260905105059 | 71 | 266 | 2.0 | 7.0 | 0.01 | 0.01 | 0.01 | 88 | 1017.1 |
| 20260905104606 | 71 | 0 | 1.0 | 5.0 | 0.01 | 0.01 | 0.01 | 88 | 1016.5 |
| 20260905104058 | 71 | 0 | 1.0 | 5.0 | 0.01 | 0.01 | 0.01 | 88 | 1016.6 |
| 20260905103559 | 71 | 103 | 1.0 | 5.0 | 0.00 | 0.00 | 0.00 | 88 | 1016.3 |
| 20260905103104 | 71 | 117 | 1.0 | 6.0 | 0.00 | 0.00 | 0.00 | 88 | 1016.0 |
| 20260905102557 | 71 | 144 | 3.0 | 8.0 | 0.00 | 0.00 | 0.00 | 88 | 1015.7 |
| 20260905102059 | 71 | 124 | 3.0 | 8.0 | 0.00 | 0.00 | 0.00 | 87 | 1015.7 |
| 20260905101610 | 71 | 117 | 3.0 | 6.0 | 0.00 | 0.00 | 0.00 | 87 | 1015.9 |
| 20260905101058 | 71 | 107 | 2.0 | 5.0 | 0.00 | 0.00 | 0.00 | 87 | 1015.7 |
| 20260905100558 | 71 | 111 | 1.0 | 6.0 | 0.00 | 0.00 | 0.00 | 87 | 1015.7 |
| 20260905100110 | 71 | 74 | 2.0 | 7.0 | 0.00 | 0.00 | 0.00 | 87 | 1015.5 |
| 20260905095558 | 72 | 98 | 2.0 | 7.0 | 0.00 | 0.00 | 0.00 | 87 | 1015.4 |
| 20260905095058 | 72 | 92 | 2.0 | 6.0 | 0.00 | 0.00 | 0.00 | 87 | 1015.1 |
| 20260905094602 | 72 | 87 | 1.0 | 3.0 | 0.00 | 0.00 | 0.00 | 87 | 1015.1 |
| 20260905094100 | 72 | 67 | 0.0 | 3.0 | 0.00 | 0.00 | 0.00 | 87 | 1015.2 |
| 20260905093558 | 72 | 0 | 0.0 | 3.0 | 0.00 | 0.00 | 0.00 | 87 | 1015.4 |
| 20260905093107 | 72 | 108 | 0.0 | 3.0 | 0.00 | 0.00 | 0.00 | 87 | 1015.2 |
| 20260905092558 | 72 | 0 | 0.0 | 3.0 | 0.00 | 0.00 | 0.00 | 86 | 1015.4 |
| 20260905092102 | 72 | 0 | 0.0 | 3.0 | 0.00 | 0.00 | 0.00 | 86 | 1015.4 |
| 20260905091604 | 72 | 0 | 0.0 | 4.0 | 0.00 | 0.00 | 0.00 | 86 | 1015.5 |
| 20260905091059 | 72 | 90 | 0.0 | 4.0 | 0.00 | 0.00 | 0.00 | 85 | 1015.5 |
| 20260905090603 | 73 | 0 | 1.0 | 4.0 | 0.00 | 0.00 | 0.00 | 85 | 1015.5 |
| 20260905090105 | 73 | 0 | 0.0 | 3.0 | 0.00 | 0.00 | 0.00 | 85 | 1015.5 |
| 20260905085601 | 73 | 73 | 0.0 | 3.0 | 0.00 | 0.00 | 0.00 | 85 | 1015.5 |
| 20260905085100 | 73 | 85 | 0.0 | 4.0 | 0.00 | 0.00 | 0.00 | 85 | 1015.6 |
| 20260905084607 | 73 | 0 | 0.0 | 4.0 | 0.00 | 0.00 | 0.00 | 84 | 1015.5 |
| 20260905084058 | 73 | 56 | 0.0 | 7.0 | 0.00 | 0.00 | 0.00 | 84 | 1015.3 |
| 20260905083602 | 73 | 0 | 2.0 | 7.0 | 0.00 | 0.00 | 0.00 | 84 | 1015.3 |
| 20260905083102 | 73 | 0 | 1.0 | 5.0 | 0.00 | 0.00 | 0.00 | 84 | 1014.8 |
| 20260905082555 | 74 | 36 | 0.0 | 6.0 | 0.00 | 0.00 | 0.00 | 84 | 1015.1 |
| 20260905082058 | 74 | 0 | 1.0 | 7.0 | 0.00 | 0.00 | 0.00 | 84 | 1015.0 |
| 20260905081600 | 74 | 65 | 1.0 | 7.0 | 0.00 | 0.00 | 0.00 | 84 | 1014.9 |
| 20260905081058 | 74 | 0 | 1.0 | 8.0 | 0.00 | 0.00 | 0.00 | 84 | 1014.4 |
| 20260905080601 | 74 | 0 | 1.0 | 8.0 | 0.00 | 0.00 | 0.00 | 84 | 1014.2 |
| 20260905080117 | 74 | 121 | 2.0 | 8.0 | 0.00 | 0.00 | 0.00 | 84 | 1014.1 |
| 20260905075558 | 74 | 98 | 1.0 | 8.0 | 0.00 | 0.00 | 0.00 | 84 | 1014.5 |
| 20260905075058 | 74 | 0 | 1.0 | 9.0 | 0.00 | 0.00 | 0.00 | 85 | 1014.7 |
| 20260905074601 | 74 | 90 | 1.0 | 9.0 | 0.00 | 0.00 | 0.00 | 85 | 1014.8 |
| 20260905074059 | 74 | 40 | 1.0 | 9.0 | 0.00 | 0.00 | 0.00 | 85 | 1014.7 |
| 20260905073558 | 74 | 67 | 1.0 | 6.0 | 0.00 | 0.00 | 0.00 | 86 | 1014.8 |
| 20260905073103 | 74 | 30 | 0.0 | 8.0 | 0.00 | 0.00 | 0.00 | 86 | 1014.9 |
| 20260905072556 | 74 | 92 | 1.0 | 8.0 | 0.00 | 0.00 | 0.00 | 86 | 1015.0 |
| 20260905072059 | 74 | 69 | 1.0 | 8.0 | 0.00 | 0.00 | 0.00 | 86 | 1015.2 |
| 20260905071601 | 74 | 120 | 1.0 | 8.0 | 0.00 | 0.00 | 0.00 | 86 | 1015.3 |
| 20260905071102 | 74 | 101 | 0.0 | 4.0 | 0.00 | 0.00 | 0.00 | 86 | 1015.4 |
| 20260905070555 | 74 | 0 | 0.0 | 4.0 | 0.00 | 0.00 | 0.00 | 86 | 1015.5 |
| 20260905065559 | 74 | 98 | 1.0 | 8.0 | 0.00 | 0.00 | 0.00 | 86 | 1015.6 |
| 20260905065058 | 74 | 0 | 1.0 | 6.0 | 0.00 | 0.00 | 0.00 | 86 | 1015.5 |
| 20260905064604 | 73 | 69 | 1.0 | 6.0 | 0.00 | 0.00 | 0.00 | 86 | 1015.5 |
| 20260905064058 | 73 | 72 | 0.0 | 6.0 | 0.00 | 0.00 | 0.00 | 86 | 1015.5 |
| 20260905063559 | 73 | 63 | 0.0 | 6.0 | 0.00 | 0.00 | 0.00 | 86 | 1015.6 |
| 20260905063104 | 73 | 0 | 0.0 | 5.0 | 0.00 | 0.00 | 0.00 | 87 | 1015.5 |
| 20260905062554 | 73 | 65 | 0.0 | 7.0 | 0.00 | 0.00 | 0.00 | 87 | 1015.6 |
| 20260905062058 | 73 | 0 | 0.0 | 7.0 | 0.00 | 0.00 | 0.00 | 87 | 1015.5 |
| 20260905061602 | 73 | 0 | 0.0 | 5.0 | 0.00 | 0.00 | 0.00 | 87 | 1015.6 |
| 20260905061100 | 73 | 60 | 0.0 | 5.0 | 0.00 | 0.00 | 0.00 | 86 | 1015.5 |
| 20260905060558 | 73 | 0 | 0.0 | 5.0 | 0.00 | 0.00 | 0.00 | 86 | 1015.6 |
| 20260905060106 | 73 | 0 | 0.0 | 3.0 | 0.00 | 0.00 | 0.00 | 86 | 1015.6 |
| 20260905055559 | 73 | 0 | 0.0 | 4.0 | 0.00 | 0.00 | 0.00 | 86 | 1015.6 |
| 20260905055056 | 73 | 0 | 0.0 | 4.0 | 0.00 | 0.00 | 0.00 | 86 | 1015.5 |
| 20260905054559 | 73 | 0 | 0.0 | 4.0 | 0.00 | 0.00 | 0.00 | 85 | 1015.5 |
| 20260905054058 | 73 | 96 | 0.0 | 4.0 | 0.00 | 0.00 | 0.00 | 85 | 1015.4 |
| 20260905053558 | 73 | 0 | 0.0 | 6.0 | 0.00 | 0.00 | 0.00 | 85 | 1015.4 |
| 20260905053124 | 73 | 90 | 1.0 | 6.0 | 0.00 | 0.00 | 0.00 | 85 | 1015.2 |
| 20260905052558 | 73 | 71 | 1.0 | 6.0 | 0.00 | 0.00 | 0.00 | 85 | 1015.1 |
| 20260905052055 | 73 | 81 | 0.0 | 6.0 | 0.00 | 0.00 | 0.00 | 85 | 1015.1 |
| 20260905051606 | 73 | 0 | 1.0 | 5.0 | 0.00 | 0.00 | 0.00 | 85 | 1015.1 |
| 20260905051058 | 73 | 0 | 0.0 | 7.0 | 0.00 | 0.00 | 0.00 | 85 | 1015.1 |
| 20260905050558 | 73 | 106 | 1.0 | 7.0 | 0.00 | 0.00 | 0.00 | 85 | 1015.0 |
| 20260905050118 | 73 | 98 | 0.0 | 4.0 | 0.00 | 0.00 | 0.00 | 85 | 1015.0 |
| 20260905045555 | 73 | 0 | 0.0 | 4.0 | 0.00 | 0.00 | 0.00 | 84 | 1015.0 |
| 20260905045056 | 73 | 65 | 0.0 | 6.0 | 0.00 | 0.00 | 0.00 | 84 | 1015.0 |
| 20260905044603 | 74 | 0 | 1.0 | 6.0 | 0.00 | 0.00 | 0.00 | 84 | 1014.9 |
| 20260905044058 | 74 | 79 | 0.0 | 6.0 | 0.00 | 0.00 | 0.00 | 84 | 1014.9 |
| 20260905043558 | 74 | 67 | 0.0 | 5.0 | 0.00 | 0.00 | 0.00 | 84 | 1014.9 |
| 20260905043110 | 74 | 98 | 1.0 | 4.0 | 0.00 | 0.00 | 0.00 | 83 | 1014.8 |
| 20260905042556 | 74 | 0 | 0.0 | 4.0 | 0.00 | 0.00 | 0.00 | 83 | 1014.8 |
| 20260905042058 | 74 | 0 | 0.0 | 6.0 | 0.00 | 0.00 | 0.00 | 83 | 1014.9 |
| 20260905041607 | 74 | 91 | 0.0 | 6.0 | 0.00 | 0.00 | 0.00 | 83 | 1014.8 |
| 20260905041056 | 74 | 49 | 0.0 | 4.0 | 0.00 | 0.00 | 0.00 | 82 | 1014.8 |
| 20260905040556 | 74 | 0 | 0.0 | 7.0 | 0.00 | 0.00 | 0.00 | 82 | 1014.8 |
| 20260905040108 | 74 | 83 | 0.0 | 7.0 | 0.00 | 0.00 | 0.00 | 82 | 1014.7 |
| 20260905035602 | 74 | 54 | 1.0 | 5.0 | 0.00 | 0.00 | 0.00 | 82 | 1014.9 |
| 20260905035058 | 74 | 0 | 1.0 | 6.0 | 0.00 | 0.00 | 0.00 | 82 | 1014.9 |
| 20260905034617 | 74 | 72 | 1.0 | 6.0 | 0.00 | 0.00 | 0.00 | 82 | 1014.8 |
| 20260905034057 | 74 | 132 | 1.0 | 7.0 | 0.00 | 0.00 | 0.00 | 82 | 1014.9 |
| 20260905033555 | 74 | 47 | 2.0 | 7.0 | 0.00 | 0.00 | 0.00 | 81 | 1015.0 |
| 20260905033119 | 74 | 110 | 1.0 | 6.0 | 0.00 | 0.00 | 0.00 | 81 | 1015.0 |
| 20260905032557 | 74 | 115 | 1.0 | 6.0 | 0.00 | 0.00 | 0.00 | 81 | 1015.0 |
| 20260905032057 | 74 | 0 | 0.0 | 4.0 | 0.00 | 0.00 | 0.00 | 81 | 1015.0 |
| 20260905031613 | 75 | 48 | 0.0 | 3.0 | 0.00 | 0.00 | 0.00 | 80 | 1015.1 |
| 20260905031056 | 75 | 0 | 0.0 | 4.0 | 0.00 | 0.00 | 0.00 | 80 | 1015.1 |
| 20260905030555 | 75 | 126 | 1.0 | 4.0 | 0.00 | 0.00 | 0.00 | 79 | 1015.0 |
| 20260905030105 | 75 | 57 | 0.0 | 4.0 | 0.00 | 0.00 | 0.00 | 79 | 1014.9 |
| 20260905025556 | 75 | 72 | 1.0 | 4.0 | 0.00 | 0.00 | 0.00 | 78 | 1014.7 |
| 20260905025058 | 75 | 83 | 1.0 | 4.0 | 0.00 | 0.00 | 0.00 | 78 | 1014.7 |
| 20260905024604 | 76 | 81 | 1.0 | 6.0 | 0.00 | 0.00 | 0.00 | 78 | 1014.7 |
| 20260905024058 | 76 | 74 | 0.0 | 6.0 | 0.00 | 0.00 | 0.00 | 77 | 1014.7 |
| 20260905023559 | 76 | 0 | 1.0 | 6.0 | 0.00 | 0.00 | 0.00 | 77 | 1014.7 |
| 20260905023127 | 76 | 82 | 0.0 | 3.0 | 0.00 | 0.00 | 0.00 | 77 | 1014.7 |
| 20260905022557 | 77 | 0 | 0.0 | 3.0 | 0.00 | 0.00 | 0.00 | 77 | 1014.7 |
| 20260905022057 | 77 | 0 | 0.0 | 1.0 | 0.00 | 0.00 | 0.00 | 77 | 1014.7 |
| 20260905021602 | 77 | 94 | 0.0 | 2.0 | 0.00 | 0.00 | 0.00 | 77 | 1014.6 |
| 20260905021058 | 77 | 0 | 0.0 | 2.0 | 0.00 | 0.00 | 0.00 | 76 | 1014.6 |
| 20260905020558 | 78 | 65 | 0.0 | 2.0 | 0.00 | 0.00 | 0.00 | 76 | 1014.5 |
| 20260905020104 | 78 | 0 | 0.0 | 2.0 | 0.00 | 0.00 | 0.00 | 76 | 1014.4 |
| 20260905015558 | 78 | 0 | 0.0 | 3.0 | 0.00 | 0.00 | 0.00 | 75 | 1014.3 |
| 20260905015055 | 78 | 0 | 0.0 | 3.0 | 0.00 | 0.00 | 0.00 | 75 | 1014.2 |
| 20260905014601 | 78 | 0 | 0.0 | 3.0 | 0.00 | 0.00 | 0.00 | 74 | 1014.1 |
| 20260905014058 | 79 | 0 | 0.0 | 2.0 | 0.00 | 0.00 | 0.00 | 73 | 1014.1 |
| 20260905013555 | 79 | 0 | 0.0 | 3.0 | 0.00 | 0.00 | 0.00 | 73 | 1014.0 |
| 20260905013106 | 79 | 81 | 0.0 | 3.0 | 0.00 | 0.00 | 0.00 | 73 | 1014.0 |
| 20260905012559 | 79 | 0 | 0.0 | 4.0 | 0.00 | 0.00 | 0.00 | 72 | 1013.9 |
| 20260905012057 | 80 | 101 | 0.0 | 4.0 | 0.00 | 0.00 | 0.00 | 72 | 1013.9 |
| 20260905011602 | 80 | 0 | 0.0 | 4.0 | 0.00 | 0.00 | 0.00 | 72 | 1013.8 |
| 20260905011101 | 80 | 0 | 0.0 | 7.0 | 0.00 | 0.00 | 0.00 | 71 | 1013.8 |
| 20260905010559 | 81 | 0 | 1.0 | 7.0 | 0.00 | 0.00 | 0.00 | 71 | 1013.8 |
| 20260905010112 | 81 | 69 | 0.0 | 5.0 | 0.00 | 0.00 | 0.00 | 70 | 1013.8 |
| 20260905005558 | 81 | 0 | 0.0 | 6.0 | 0.00 | 0.00 | 0.00 | 70 | 1013.8 |
| 20260905005101 | 82 | 0 | 1.0 | 6.0 | 0.00 | 0.00 | 0.00 | 69 | 1013.8 |
| 20260905004633 | 82 | 14 | 0.0 | 7.0 | 0.00 | 0.00 | 0.00 | 69 | 1013.8 |
| 20260905004056 | 82 | 68 | 1.0 | 7.0 | 0.00 | 0.00 | 0.00 | 68 | 1013.8 |
| 20260905003600 | 83 | 0 | 0.0 | 3.0 | 0.00 | 0.00 | 0.00 | 68 | 1013.8 |
| 20260905003120 | 83 | 94 | 1.0 | 6.0 | 0.00 | 0.00 | 0.00 | 67 | 1013.9 |
| 20260905002557 | 83 | 0 | 1.0 | 6.0 | 0.00 | 0.00 | 0.00 | 67 | 1013.7 |
| 20260905002058 | 83 | 40 | 1.0 | 4.0 | 0.00 | 0.00 | 0.00 | 67 | 1013.7 |
| 20260905001603 | 84 | 86 | 0.0 | 4.0 | 0.00 | 0.00 | 0.00 | 66 | 1013.7 |
| 20260905001055 | 84 | 57 | 0.0 | 2.0 | 0.00 | 0.00 | 0.00 | 66 | 1013.7 |
| 20260905000555 | 84 | 32 | 0.0 | 4.0 | 0.00 | 0.00 | 0.00 | 66 | 1013.6 |
| 20260905000137 | 84 | 0 | 0.0 | 7.0 | 0.00 | 0.00 | 0.00 | 65 | 1013.7 |
| 20260904235559 | 84 | 63 | 1.0 | 7.0 | 0.00 | 0.00 | 0.00 | 64 | 1013.8 |
| 20260904235058 | 85 | 329 | 1.0 | 6.0 | 0.00 | 0.00 | 0.00 | 64 | 1013.7 |
| 20260904234600 | 85 | 59 | 1.0 | 3.0 | 0.00 | 0.00 | 0.00 | 63 | 1013.7 |
| 20260904234058 | 85 | 0 | 0.0 | 8.0 | 0.00 | 0.00 | 0.00 | 63 | 1013.6 |
| 20260904233602 | 85 | 44 | 1.0 | 8.0 | 0.00 | 0.00 | 0.00 | 62 | 1013.6 |
| 20260904233103 | 85 | 0 | 1.0 | 8.0 | 0.00 | 0.00 | 0.00 | 61 | 1013.6 |
| 20260904232556 | 85 | 45 | 1.0 | 6.0 | 0.00 | 0.00 | 0.00 | 61 | 1013.6 |
| 20260904232101 | 85 | 0 | 1.0 | 5.0 | 0.00 | 0.00 | 0.00 | 60 | 1013.6 |
| 20260904231602 | 86 | 0 | 0.0 | 5.0 | 0.00 | 0.00 | 0.00 | 60 | 1013.7 |
| 20260904231058 | 86 | 121 | 1.0 | 6.0 | 0.00 | 0.00 | 0.00 | 60 | 1013.6 |
| 20260904230558 | 86 | 59 | 0.0 | 7.0 | 0.00 | 0.00 | 0.00 | 59 | 1013.7 |
| 20260904230114 | 86 | 31 | 1.0 | 7.0 | 0.00 | 0.00 | 0.00 | 59 | 1013.7 |
| 20260904225558 | 86 | 79 | 0.0 | 3.0 | 0.00 | 0.00 | 0.00 | 58 | 1013.7 |
| 20260904225055 | 86 | 9 | 0.0 | 5.0 | 0.00 | 0.00 | 0.00 | 59 | 1013.8 |
| 20260904224604 | 86 | 0 | 1.0 | 7.0 | 0.00 | 0.00 | 0.00 | 58 | 1013.9 |